Wind_Speed
32 32 31 31 31 30 30 30 30 30 30 31 31 32 33 33 34 35 36 37 37 38 39 40 40 41 41 42 43 44 44 45 46 47 47 47 48 48 48 49 50 50 51
32 31 31 31 31 31 30 30 30 31 31 32 33 33 34 35 35 36 37 37 38 38 39 40 41 42 43 43 44 45 45 46 46 47 47 47 47 48 48 49 50 51 52
32 32 31 32 32 31 31 31 31 32 32 33 34 34 35 36 36 37 38 38 39 39 40 41 42 42 43 44 45 45 46 46 46 47 48 49 49 49 49 50 51 52 53
33 33 32 32 32 32 32 32 33 33 34 34 34 34 35 36 36 37 38 39 39 40 40 41 42 43 44 45 45 46 46 47 47 48 49 50 51 52 51 51 52 52 53
35 34 33 33 33 33 33 34 34 34 34 35 35 35 36 36 36 37 38 38 39 40 40 41 42 43 44 45 46 46 47 48 48 49 49 50 51 53 54 53 53 53 53
35 35 34 34 34 34 34 34 35 35 35 35 36 36 36 37 37 37 38 38 39 40 41 41 42 43 44 45 46 47 48 48 49 48 48 49 50 52 53 55 54 54 54
35 35 34 34 34 34 34 35 35 35 35 35 36 36 37 37 37 38 38 39 39 40 41 42 43 43 44 45 45 46 46 47 47 47 47 49 51 52 53 54 54 54 54
34 34 35 34 34 34 34 35 35 35 35 36 36 36 36 37 38 39 39 40 41 41 42 43 43 43 43 43 44 44 45 46 47 47 48 50 51 52 53 54 55 55 53
34 35 35 35 35 34 34 34 35 35 35 35 36 36 37 38 38 39 40 41 42 42 43 42 42 42 43 44 45 46 46 47 47 48 49 50 51 51 52 54 56 56 55
35 35 34 35 35 35 34 35 35 35 35 35 36 36 37 38 39 40 41 41 41 41 41 41 42 43 43 44 45 46 47 47 48 48 48 49 50 51 53 54 55 56 56
34 34 34 34 35 35 35 35 36 36 36 36 36 37 38 39 40 40 41 41 40 41 41 41 42 42 43 44 46 46 47 47 48 48 48 49 50 51 53 53 53 54 55
33 33 33 34 34 35 35 36 36 36 36 37 38 38 39 39 40 40 40 40 41 41 42 42 42 43 44 45 45 46 47 48 48 48 49 50 51 51 52 52 52 52 53
33 33 33 33 34 34 35 35 36 36 37 37 38 39 39 40 40 40 40 41 42 42 43 43 43 44 45 46 46 46 47 47 48 48 49 50 51 51 51 51 50 50 49
33 33 32 33 34 34 34 35 36 37 37 38 39 39 40 40 40 40 41 41 42 43 43 43 44 44 45 45 46 46 47 47 47 48 48 49 50 49 49 48 47 47 46
33 32 32 33 33 34 34 35 36 37 37 38 39 39 39 40 40 40 41 41 42 43 44 44 44 44 45 45 45 46 46 46 46 47 47 47 46 46 45 44 44 43 42
33 33 33 33 33 33 34 35 36 36 37 37 38 38 39 39 40 40 41 42 43 44 44 44 43 43 44 45 45 46 46 46 46 45 45 44 43 43 42 41 41 41 40
33 32 33 33 33 33 34 35 35 36 37 37 38 38 38 38 39 40 40 41 42 43 43 42 42 42 43 44 45 45 45 44 44 43 43 42 42 41 40 38 37 37 36
32 32 33 33 33 33 33 34 34 35 36 36 37 37 38 38 39 39 40 40 41 41 41 41 41 42 43 43 43 43 42 41 41 40 40 40 39 39 38 37 36 35 35
34 33 33 33 33 33 33 33 34 35 35 36 36 36 37 37 38 38 38 39 39 39 39 40 40 40 40 40 40 39 38 37 37 37 37 37 37 37 37 36 35 34 33
34 34 33 33 33 32 33 33 33 34 35 35 35 36 36 36 36 36 37 38 39 39 38 38 38 38 38 38 37 36 35 34 34 34 34 35 35 35 35 34 33 32 31
34 34 33 33 33 33 33 33 33 33 33 33 34 35 35 36 36 36 36 37 36 36 36 36 36 36 36 35 34 33 33 32 32 32 33 33 34 34 34 33 32 31 30
33 33 33 33 33 32 32 32 32 32 32 32 33 33 34 34 35 35 35 35 35 34 34 34 34 33 33 32 32 31 31 31 31 31 32 32 33 33 32 31 30 29 28
32 32 32 32 32 32 32 32 32 31 31 32 32 33 33 33 33 34 34 34 34 33 33 33 32 31 30 30 29 29 30 30 31 31 32 32 32 31 29 28 28 28 26
33 33 33 32 33 33 33 32 32 32 32 31 31 32 32 32 33 33 33 33 32 31 31 30 28 27 28 28 29 29 29 30 31 31 31 31 31 29 27 27 26 25 23
32 33 33 33 32 32 32 32 32 31 31 31 31 31 31 32 32 32 31 30 30 29 28 27 27 27 26 27 28 28 29 30 30 30 30 30 28 27 25 24 23 22 20
30 30 31 32 32 32 32 31 31 31 31 30 31 31 31 31 31 30 29 29 28 28 27 26 26 26 27 27 27 28 28 29 30 29 29 28 26 24 23 22 21 19 19
Wind_Direction
249 250 252 253 253 254 256 258 258 259 261 263 265 267 269 271 272 273 274 274 275 276 277 278 280 282 283 283 284 285 285 284 283 282 280 279 278 278 278 279 280 280 280
249 250 252 253 254 255 257 259 259 261 263 265 267 269 270 271 273 274 275 276 276 277 278 279 281 282 284 285 286 286 286 286 285 284 282 280 279 277 278 279 280 280 280
250 251 253 255 256 257 258 260 261 263 266 268 270 271 272 273 273 274 275 276 277 279 280 281 282 283 285 287 287 287 288 287 286 285 284 282 280 279 278 279 280 281 281
251 253 255 256 258 259 260 261 263 266 269 271 272 273 274 274 275 275 277 277 278 280 281 283 284 284 286 288 288 288 288 288 287 287 285 284 283 282 281 281 282 283 283
251 254 256 257 258 260 262 263 265 268 270 272 273 274 275 276 276 277 278 279 280 281 282 283 284 285 287 288 288 288 288 288 288 287 285 284 284 283 282 283 283 283 283
252 254 256 258 259 261 263 265 267 269 270 272 274 275 276 276 277 278 279 280 281 282 282 283 284 285 287 288 288 288 288 289 288 287 286 286 286 286 284 283 283 284 284
253 254 256 258 260 262 264 265 267 269 271 273 274 275 276 276 277 279 280 281 282 282 283 284 284 285 287 289 289 290 290 290 289 288 288 288 288 288 287 286 286 286 286
254 255 256 258 260 263 264 266 268 270 272 273 274 275 276 276 278 279 281 282 283 283 284 285 285 285 287 289 290 291 291 291 290 290 289 289 289 289 290 288 288 288 287
254 256 257 258 261 263 264 266 268 270 272 273 274 275 276 277 279 280 282 282 283 284 285 286 286 286 287 289 290 292 292 293 292 291 291 291 290 290 291 291 290 290 289
255 256 258 259 260 262 264 266 267 270 272 273 274 275 276 278 280 281 282 283 284 284 285 286 287 287 288 289 291 293 294 294 294 292 292 292 292 292 292 293 292 290 289
255 257 258 259 260 261 263 265 267 269 271 273 274 275 277 279 281 282 283 283 284 284 286 287 287 288 289 290 292 293 294 294 294 293 293 293 293 293 294 294 293 291 290
255 256 257 258 260 262 264 265 267 268 270 272 274 275 277 279 281 283 283 283 284 285 287 287 288 288 290 291 292 293 294 295 295 294 293 294 294 295 296 295 293 293 291
255 256 258 259 261 263 265 266 267 268 270 272 274 275 277 279 281 282 282 283 285 286 287 288 288 289 290 291 292 293 295 296 295 295 295 295 295 296 296 296 294 294 292
255 257 258 260 262 263 265 266 268 269 271 273 274 276 278 280 281 281 282 284 285 287 288 288 289 290 291 293 293 293 295 296 296 296 296 297 297 298 298 297 296 295 294
254 256 259 261 262 264 265 267 269 270 272 274 275 276 278 279 280 281 283 284 286 287 288 289 289 290 291 293 295 295 295 295 296 296 297 298 299 299 299 298 297 296 295
255 257 259 261 263 266 268 269 270 272 273 274 275 277 278 279 280 282 283 285 286 287 288 289 290 291 292 293 295 296 296 296 296 296 297 298 299 300 300 300 299 299 297
255 257 259 262 265 268 270 271 272 273 274 275 276 277 278 280 281 282 284 285 287 288 289 289 290 291 293 294 295 297 297 297 296 296 297 298 299 300 300 300 300 301 300
255 257 260 263 266 268 270 272 273 274 275 276 277 278 280 281 282 283 285 286 288 289 289 290 291 293 294 295 296 297 297 297 296 296 298 299 301 302 301 301 301 301 300
256 258 261 264 266 269 271 273 275 275 276 277 278 279 280 282 283 284 285 287 288 289 290 291 292 294 295 295 296 297 298 298 298 298 300 301 303 303 302 302 302 301 299
257 259 261 264 267 269 271 273 276 277 277 277 278 278 279 281 283 284 287 288 289 290 290 291 292 293 295 296 297 298 298 299 299 301 303 304 304 304 305 305 304 301 298
258 259 261 263 266 269 271 274 276 278 278 276 277 278 279 280 282 285 288 289 290 290 290 291 293 294 296 297 298 299 300 300 301 302 304 305 305 305 305 305 305 303 301
258 259 261 263 266 270 272 274 276 277 277 278 278 279 281 282 284 286 288 289 290 291 291 292 294 295 296 297 298 299 300 301 302 304 305 306 306 306 305 305 305 304 302
258 259 261 263 266 269 272 274 275 276 278 279 280 282 283 285 287 288 289 290 290 291 292 294 296 296 296 296 298 299 300 300 302 304 306 306 307 307 306 305 304 304 301
259 260 262 263 266 268 271 274 275 275 276 279 281 283 285 287 289 291 291 290 291 292 293 295 296 296 296 297 298 298 299 300 302 305 305 305 305 306 305 304 304 303 301
260 260 262 264 266 268 272 273 274 275 277 278 281 284 286 288 290 291 291 291 292 293 294 295 296 296 297 298 299 299 300 302 304 304 305 306 305 304 304 304 304 302 302
260 261 262 263 264 267 270 271 272 274 276 278 280 283 285 288 289 290 291 291 292 292 294 295 298 299 300 300 301 302 303 305 306 306 305 305 304 304 304 304 304 301 300
Height
5726 5728 5730 5732 5734 5736 5738 5739 5741 5742 5743 5743 5744 5744 5744 5744 5744 5743 5743 5742 5741 5741 5740 5739 5738 5737 5736 5734 5732 5730 5728 5726 5724 5723 5722 5721 5720 5719 5718 5717 5716 5714 5713
5719 5721 5724 5726 5727 5729 5731 5732 5733 5734 5735 5735 5736 5736 5736 5735 5735 5734 5734 5733 5732 5731 5731 5730 5728 5727 5725 5724 5721 5719 5716 5714 5711 5709 5708 5708 5709 5708 5706 5704 5703 5701 5700
5712 5715 5717 5719 5720 5722 5724 5725 5726 5726 5727 5727 5727 5727 5726 5726 5726 5725 5724 5724 5723 5722 5721 5720 5718 5717 5715 5712 5709 5706 5704 5702 5699 5696 5694 5693 5694 5694 5694 5692 5690 5688 5686
5705 5708 5710 5712 5713 5715 5716 5717 5718 5718 5718 5718 5718 5718 5717 5717 5716 5715 5715 5714 5713 5712 5711 5709 5708 5706 5704 5701 5698 5695 5692 5689 5687 5685 5682 5680 5678 5677 5679 5680 5676 5674 5672
5697 5700 5702 5704 5706 5707 5708 5709 5710 5710 5710 5709 5709 5708 5708 5707 5706 5706 5705 5704 5703 5702 5700 5699 5697 5695 5693 5689 5686 5683 5680 5677 5675 5672 5670 5668 5665 5663 5662 5663 5663 5661 5658
5690 5692 5694 5696 5698 5699 5700 5701 5701 5701 5701 5700 5700 5699 5698 5697 5697 5696 5695 5694 5693 5692 5690 5689 5687 5684 5682 5678 5675 5672 5669 5666 5662 5659 5657 5654 5652 5650 5647 5646 5646 5645 5644
5681 5684 5686 5688 5690 5691 5692 5692 5693 5692 5692 5691 5690 5689 5688 5688 5687 5687 5685 5684 5683 5682 5680 5678 5676 5674 5671 5667 5664 5660 5657 5654 5650 5647 5645 5642 5639 5636 5633 5630 5629 5628 5628
5673 5675 5678 5680 5681 5683 5683 5684 5684 5684 5683 5682 5681 5680 5679 5678 5678 5677 5675 5674 5673 5671 5669 5667 5665 5663 5660 5657 5653 5650 5646 5643 5639 5636 5633 5630 5627 5623 5619 5616 5613 5611 5612
5665 5667 5669 5671 5672 5674 5675 5675 5675 5675 5674 5673 5672 5671 5670 5669 5668 5667 5665 5664 5662 5660 5658 5656 5654 5652 5649 5647 5643 5640 5636 5632 5628 5625 5621 5618 5614 5610 5606 5602 5598 5594 5593
5656 5658 5660 5662 5664 5665 5666 5666 5666 5666 5665 5664 5663 5662 5661 5660 5658 5657 5655 5653 5651 5649 5647 5645 5643 5641 5638 5636 5632 5629 5625 5621 5617 5613 5609 5606 5602 5598 5594 5589 5585 5579 5575
5647 5649 5651 5653 5654 5655 5656 5657 5657 5657 5656 5655 5654 5653 5652 5650 5649 5647 5645 5643 5641 5639 5637 5635 5633 5630 5628 5625 5621 5618 5614 5610 5606 5602 5598 5594 5589 5585 5581 5576 5571 5567 5562
5638 5640 5642 5644 5645 5646 5647 5647 5647 5647 5647 5646 5645 5644 5642 5640 5639 5637 5635 5633 5631 5629 5627 5624 5622 5620 5617 5613 5610 5606 5602 5598 5594 5590 5586 5582 5577 5573 5568 5563 5558 5554 5549
5629 5632 5633 5635 5636 5637 5638 5638 5638 5638 5637 5636 5635 5634 5632 5630 5629 5627 5625 5623 5620 5618 5616 5614 5611 5609 5606 5602 5599 5595 5591 5587 5583 5578 5574 5569 5564 5560 5555 5550 5545 5541 5536
5621 5623 5625 5626 5627 5628 5628 5628 5628 5628 5627 5626 5625 5624 5622 5620 5618 5616 5614 5612 5610 5608 5605 5603 5600 5597 5594 5591 5587 5584 5580 5576 5572 5567 5562 5557 5552 5547 5542 5538 5533 5529 5525
5613 5615 5616 5617 5618 5619 5619 5619 5618 5618 5617 5616 5615 5613 5612 5610 5608 5606 5604 5601 5599 5597 5594 5592 5589 5586 5583 5579 5576 5573 5569 5565 5561 5556 5551 5546 5540 5535 5530 5526 5522 5518 5514
5604 5606 5607 5608 5609 5609 5610 5609 5608 5608 5607 5605 5604 5603 5601 5599 5597 5595 5593 5590 5588 5586 5583 5580 5578 5575 5572 5568 5565 5561 5557 5553 5549 5545 5541 5536 5531 5526 5521 5516 5512 5507 5503
5595 5597 5598 5599 5600 5600 5600 5599 5599 5598 5596 5595 5594 5592 5591 5589 5587 5585 5582 5580 5577 5575 5572 5570 5567 5564 5561 5557 5554 5549 5545 5542 5539 5534 5530 5526 5521 5516 5512 5508 5504 5499 5494
5586 5588 5589 5590 5590 5590 5590 5590 5589 5588 5586 5585 5584 5582 5580 5579 5576 5574 5572 5569 5567 5564 5562 5559 5557 5554 5551 5547 5543 5539 5535 5532 5528 5524 5520 5517 5513 5508 5503 5500 5496 5491 5487
5577 5578 5580 5580 5581 5581 5581 5580 5579 5578 5577 5575 5574 5572 5570 5568 5566 5564 5561 5559 5557 5554 5552 5549 5547 5544 5541 5537 5533 5529 5526 5523 5520 5516 5512 5508 5504 5500 5495 5491 5488 5484 5479
5568 5569 5570 5571 5572 5572 5571 5571 5570 5568 5567 5565 5564 5562 5561 5559 5557 5554 5552 5549 5547 5545 5542 5540 5537 5534 5532 5528 5524 5521 5518 5515 5512 5509 5504 5500 5496 5492 5487 5483 5479 5476 5472
5558 5560 5561 5562 5562 5562 5562 5561 5560 5559 5557 5556 5555 5553 5551 5549 5547 5545 5543 5540 5537 5535 5533 5531 5528 5526 5523 5519 5516 5513 5510 5507 5504 5501 5498 5493 5488 5484 5479 5475 5471 5467 5464
5549 5550 5551 5553 5553 5553 5553 5552 5551 5549 5548 5547 5545 5544 5542 5540 5538 5536 5534 5531 5529 5527 5524 5522 5520 5517 5514 5511 5508 5505 5502 5499 5496 5493 5490 5486 5481 5477 5473 5469 5465 5461 5457
5540 5541 5542 5543 5543 5543 5543 5542 5542 5540 5539 5538 5537 5535 5533 5531 5530 5528 5525 5523 5520 5518 5516 5514 5512 5510 5507 5504 5501 5499 5495 5492 5489 5486 5482 5478 5474 5470 5466 5463 5459 5455 5452
5530 5532 5533 5534 5534 5534 5534 5533 5532 5531 5531 5530 5528 5527 5525 5523 5521 5519 5517 5515 5512 5510 5508 5506 5504 5502 5500 5497 5495 5492 5489 5486 5482 5478 5475 5471 5467 5463 5460 5456 5453 5450 5446
5521 5522 5523 5524 5525 5525 5525 5524 5523 5523 5522 5521 5520 5519 5517 5515 5513 5511 5509 5507 5505 5502 5501 5499 5497 5495 5493 5490 5487 5484 5482 5479 5475 5471 5468 5464 5461 5457 5454 5451 5447 5444 5442
5512 5513 5514 5515 5516 5516 5516 5515 5515 5514 5514 5513 5512 5510 5509 5507 5506 5503 5502 5499 5497 5495 5493 5491 5490 5488 5485 5483 5480 5477 5474 5471 5467 5464 5461 5457 5454 5451 5448 5445 5443 5440 5438